{"data":{"norad_id":48651,"epoch":"2026-09-19T14:15:47.238336Z","epoch_age_seconds":115544,"freshness":"FRESH","line1":"1 48651U 21044P   26262.59429674  .00005706  00000+0  19540-3 0  9998","line2":"2 48651  53.1627 291.5453 0002629  36.7115 323.4066 15.31719610293531","mean_motion":15.3171961,"eccentricity":0.0002629,"inclination_deg":53.1627,"raan_deg":291.5453,"arg_perigee_deg":36.7115,"mean_anomaly_deg":323.4066,"bstar":0.0001954,"rev_number":29353,"period_min":94.011984347449,"perigee_km":468.88098506571,"apogee_km":472.48209385376,"semimajor_km":6848.8185394597,"source":"CELESTRAK","updated_at":"2026-09-20T09:00:39.141794Z"}}